Location: *
(50.3440°N, 18.6237°E)
Time: 18:03:59
(UTC+00:00)

Meteor 1-26 Rocket - Pass Details

Date: 30 November 2020
Orbit: 807 x 928 km, 81.3° (Epoch: 17 January)

Event Time Altitude Azimuth Distance (km) Brightness Sun altitude
Rises 16:10:58 0° 176° (S) 3,562 7.6 -13.0°
Reaches altitude 10° 16:13:29 10° 173° (S) 2,626 6.9 -13.4°
Maximum altitude 16:19:21 58° 96° (E) 1,077 4.4 -14.3°
Drops below altitude 10° 16:25:14 10° 19° (NNE) 2,622 6.4 -15.2°
Sets 16:27:44 0° 16° (NNE) 3,557 7.1 -15.6°
